Location: Newark
(45.4422°N, 16.2769°E)
Time: 11:21:36
(UTC+00:00)

Courier 1B - Pass Details

Date: 13 December 2019
Orbit: 962 x 1209 km, 28.3° (Epoch: 17 January)

Event Time Altitude Azimuth Distance (km) Brightness Sun altitude
Rises 19:11:14 0° 223° (SW) 3,835 11.0 -40.9°
Enters shadow 19:14:40 - 206° (SSW) 2,992 10.2 -41.5°
Reaches altitude 10° 19:14:59 10° 204° (SSW) 2,932 - -41.6°
Maximum altitude 19:19:20 17° 167° (SSE) 2,500 - -42.3°
Drops below altitude 10° 19:23:50 10° 129° (SE) 3,044 - -43.1°
Sets 19:27:50 0° 111° (ESE) 4,047 - -43.8°
